EW9434 Weather Reports


Display with metric or nautical units.
time (UTC)temp
F
wind
direction
speed
MPH
gust
MPH
rain 1hr
in
rain 24hr
in
rain mn
in
humidity
%
barometer
mb
20260509021843 58 285 2.0 5.0 0.00 0.00 0.00 78 1009.5
20260509021535 58 285 2.0 5.0 0.00 0.00 0.00 78 1009.4
20260509021342 58 273 2.0 4.0 0.00 0.00 0.00 78 1009.4
20260509020817 58 291 2.0 4.0 0.00 0.00 0.00 78 1009.4
20260509020312 58 290 2.0 4.0 0.00 0.00 0.00 77 1009.4
20260509020110 58 290 1.0 4.0 0.00 0.00 0.00 77 1009.3
20260509015810 59 290 2.0 4.0 0.00 0.00 0.00 76 1009.4
20260509015306 59 290 2.0 4.0 0.00 0.00 0.00 76 1009.4
20260509014805 59 290 2.0 4.0 0.00 0.00 0.00 75 1009.4
20260509014536 58 290 2.0 4.0 0.00 0.00 0.00 75 1009.3
20260509014239 59 289 1.0 3.0 0.00 0.00 0.00 74 1009.4
20260509013713 59 288 1.0 3.0 0.00 0.00 0.00 74 1009.5
20260509013146 59 290 1.0 3.0 0.00 0.00 0.00 73 1009.4
20260509013004 59 290 0.0 3.0 0.00 0.00 0.00 73 1009.3
20260509012621 60 273 1.0 3.0 0.00 0.00 0.00 72 1009.3
20260509012111 60 273 2.0 9.0 0.00 0.00 0.00 71 1009.3
20260509011832 61 273 3.0 9.0 0.00 0.00 0.00 68 1009.4
20260509011605 60 273 1.0 9.0 0.00 0.00 0.00 68 1009.3
20260509011044 62 273 3.0 7.0 0.00 0.00 0.00 66 1009.5
20260509010757 62 288 2.0 7.0 0.00 0.00 0.00 61 1009.3
20260509010038 63 286 1.0 3.0 0.00 0.00 0.00 57 1009.3
20260509010015 63 286 2.0 3.0 0.00 0.00 0.00 58 1009.3
20260509005531 63 286 1.0 3.0 0.00 0.00 0.00 55 1009.2
20260509005030 64 287 1.0 2.0 0.00 0.00 0.00 55 1008.9
20260509004519 63 287 0.0 2.0 0.00 0.00 0.00 53 1008.7
20260509004501 64 286 1.0 2.0 0.00 0.00 0.00 53 1008.7
20260509004002 64 287 1.0 2.0 0.00 0.00 0.00 53 1008.7
20260509003458 64 286 1.0 2.0 0.00 0.00 0.00 53 1008.5
20260509003034 64 286 0.0 2.0 0.00 0.00 0.00 54 1008.5
20260509002954 64 286 1.0 2.0 0.00 0.00 0.00 54 1008.5
20260509002650 64 286 1.0 2.0 0.00 0.00 0.00 51 1008.6
20260509002150 64 286 1.0 2.0 0.00 0.00 0.00 52 1008.6
20260509001548 64 286 0.0 2.0 0.00 0.00 0.00 52 1008.7
20260509001358 64 286 1.0 2.0 0.00 0.00 0.00 52 1008.7
20260509000837 64 286 1.0 2.0 0.00 0.00 0.00 52 1008.9
20260509000333 64 286 1.0 2.0 0.00 0.00 0.00 53 1008.7
20260509000108 64 286 0.0 2.0 0.00 0.00 0.00 53 1008.8
20260508235811 64 287 1.0 2.0 0.00 0.00 0.00 53 1008.7
20260508235251 64 286 0.0 1.0 0.00 0.00 0.00 53 1008.7
20260508234755 64 286 0.0 0.0 0.00 0.00 0.00 56 1008.6
20260508234507 64 286 0.0 0.0 0.00 0.00 0.00 57 1008.7
20260508234233 64 286 0.0 0.0 0.00 0.00 0.00 57 1008.6
20260508233730 65 286 0.0 3.0 0.00 0.00 0.00 56 1008.5
20260508233222 65 286 1.0 3.0 0.00 0.00 0.00 55 1008.5
20260508233040 64 286 0.0 3.0 0.00 0.00 0.00 55 1008.6
20260508232917 65 286 1.0 3.0 0.00 0.00 0.00 54 1008.6
20260508232153 65 286 1.0 3.0 0.00 0.00 0.00 54 1008.9
20260508231917 66 286 1.0 3.0 0.00 0.00 0.00 53 1008.7
20260508231556 65 286 0.0 3.0 0.00 0.00 0.00 54 1008.8
20260508231152 66 286 1.0 8.0 0.00 0.00 0.00 52 1008.7
20260508230859 66 286 3.0 8.0 0.00 0.00 0.00 50 1008.6
20260508230134 66 286 3.0 9.0 0.00 0.00 0.00 49 1008.5
20260508230105 66 286 2.0 9.0 0.00 0.00 0.00 49 1008.5
20260508225831 67 286 2.0 9.0 0.00 0.00 0.00 48 1008.6
20260508225040 67 286 2.0 4.0 0.00 0.00 0.00 48 1008.5
20260508224743 67 286 2.0 9.0 0.00 0.00 0.00 46 1008.4
20260508224533 67 286 1.0 9.0 0.00 0.00 0.00 46 1008.5
20260508224505 67 286 3.0 9.0 0.00 0.00 0.00 44 1008.4
20260508223456 67 100 3.0 8.0 0.00 0.00 0.00 44 1008.3
20260508223159 68 159 3.0 8.0 0.00 0.00 0.00 44 1008.4
20260508223102 67 126 2.0 8.0 0.00 0.00 0.00 43 1008.5
20260508222434 68 105 3.0 8.0 0.00 0.00 0.00 43 1008.4
20260508222130 68 24 2.0 5.0 0.00 0.00 0.00 44 1008.4
20260508221515 67 139 3.0 5.0 0.00 0.00 0.00 43 1008.4
20260508221348 68 147 2.0 7.0 0.00 0.00 0.00 43 1008.3
20260508220846 68 133 2.0 6.0 0.00 0.00 0.00 43 1008.4
20260508220331 68 133 3.0 9.0 0.00 0.00 0.00 42 1008.4
20260508220113 67 142 2.0 10.0 0.00 0.00 0.00 42 1008.5
20260508215811 68 130 3.0 10.0 0.00 0.00 0.00 42 1008.4
20260508215249 68 144 4.0 12.0 0.00 0.00 0.00 42 1008.4
20260508215209 68 149 5.0 12.0 0.00 0.00 0.00 42 1008.3
20260508214656 67 161 4.0 11.0 0.00 0.00 0.00 42 1008.3
20260508214502 67 109 5.0 11.0 0.00 0.00 0.00 41 1008.4
20260508213708 67 141 4.0 11.0 0.00 0.00 0.00 43 1008.3
20260508213208 68 154 4.0 10.0 0.00 0.00 0.00 43 1008.4
20260508213037 67 165 4.0 10.0 0.00 0.00 0.00 42 1008.5
20260508212647 68 189 4.0 9.0 0.00 0.00 0.00 42 1008.4
20260508212147 68 174 4.0 9.0 0.00 0.00 0.00 43 1008.5
20260508211647 68 224 3.0 9.0 0.00 0.00 0.00 42 1008.5
20260508211533 67 170 3.0 9.0 0.00 0.00 0.00 43 1008.7
20260508211142 68 132 3.0 9.0 0.00 0.00 0.00 42 1008.6
20260508210624 68 148 3.0 9.0 0.00 0.00 0.00 42 1008.5
20260508210036 67 122 1.0 9.0 0.00 0.00 0.00 42 1008.9
20260508205558 67 119 4.0 10.0 0.00 0.00 0.00 41 1008.9
20260508205037 67 160 5.0 12.0 0.00 0.00 0.00 41 1009.1
20260508204731 67 146 5.0 12.0 0.00 0.00 0.00 41 1009.2
20260508204552 67 162 5.0 12.0 0.00 0.00 0.00 40 1009.3
20260508203953 67 121 4.0 12.0 0.00 0.00 0.00 43 1009.3
20260508203429 67 198 4.0 11.0 0.00 0.00 0.00 42 1009.4
20260508203059 67 94 2.0 14.0 0.00 0.00 0.00 45 1009.5
20260508202931 68 238 5.0 10.0 0.00 0.00 0.00 42 1009.4
20260508202925 67 324 5.0 14.0 0.00 0.00 0.00 43 1009.4
20260508201905 68 170 5.0 14.0 0.00 0.00 0.00 42 1009.5
20260508201521 67 205 6.0 14.0 0.00 0.00 0.00 41 1009.6
20260508201405 68 174 4.0 14.0 0.00 0.00 0.00 44 1009.5
20260508200905 68 170 5.0 16.0 0.00 0.00 0.00 42 1009.6
20260508200338 68 228 5.0 16.0 0.00 0.00 0.00 41 1009.6
20260508200110 67 167 5.0 12.0 0.00 0.00 0.00 43 1009.7
20260508195813 67 193 5.0 12.0 0.00 0.00 0.00 42 1009.5
20260508195312 67 138 5.0 13.0 0.00 0.00 0.00 42 1009.7
20260508194748 67 207 4.0 11.0 0.00 0.00 0.00 41 1009.7
20260508194618 67 219 4.0 11.0 0.00 0.00 0.00 42 1009.8
20260508194220 68 141 5.0 11.0 0.00 0.00 0.00 40 1009.8
20260508193717 68 218 6.0 16.0 0.00 0.00 0.00 39 1009.7
20260508193211 68 205 6.0 16.0 0.00 0.00 0.00 39 1009.8
20260508193125 68 206 6.0 15.0 0.00 0.00 0.00 39 1009.9
20260508193041 67 207 6.0 16.0 0.00 0.00 0.00 41 1009.9
20260508192118 68 174 6.0 15.0 0.00 0.00 0.00 40 1009.9
20260508191615 68 217 7.0 17.0 0.00 0.00 0.00 38 1010.0
20260508191546 68 194 5.0 17.0 0.00 0.00 0.00 38 1010.1
20260508191110 69 195 7.0 17.0 0.00 0.00 0.00 37 1010.0
20260508190830 69 126 6.0 15.0 0.00 0.00 0.00 39 1010.0
20260508190106 69 139 6.0 11.0 0.00 0.00 0.00 40 1010.1
20260508190036 68 156 5.0 15.0 0.00 0.00 0.00 40 1010.2
20260508185801 68 145 7.0 16.0 0.00 0.00 0.00 40 1010.3
20260508185025 69 202 6.0 16.0 0.00 0.00 0.00 39 1010.5
20260508184550 69 159 8.0 16.0 0.00 0.00 0.00 41 1010.5
20260508184522 69 123 7.0 16.0 0.00 0.00 0.00 42 1010.4
20260508184025 69 89 6.0 15.0 0.00 0.00 0.00 42 1010.5
20260508183521 68 95 6.0 12.0 0.00 0.00 0.00 42 1010.6
20260508183035 67 158 5.0 20.0 0.00 0.00 0.00 42 1010.8
20260508182956 68 104 7.0 20.0 0.00 0.00 0.00 39 1010.7
20260508182429 68 203 5.0 18.0 0.00 0.00 0.00 41 1010.7
20260508181902 68 203 6.0 18.0 0.00 0.00 0.00 40 1010.8
20260508181525 68 84 3.0 18.0 0.00 0.00 0.00 41 1011.0
20260508181335 68 138 8.0 18.0 0.00 0.00 0.00 40 1011.0
20260508180810 68 157 7.0 18.0 0.00 0.00 0.00 43 1010.9
20260508180243 67 172 7.0 18.0 0.00 0.00 0.00 41 1011.1
20260508175715 67 175 6.0 18.0 0.00 0.00 0.00 39 1011.3
20260508175213 68 207 4.0 11.0 0.00 0.00 0.00 43 1011.3
20260508174907 67 107 5.0 15.0 0.00 0.00 0.00 48 1011.3
20260508174556 67 138 2.0 12.0 0.00 0.00 0.00 45 1011.4
20260508174143 67 136 7.0 15.0 0.00 0.00 0.00 43 1011.3
20260508173632 66 163 7.0 17.0 0.00 0.00 0.00 43 1011.5
20260508173136 66 132 5.0 17.0 0.00 0.00 0.00 44 1011.6
20260508173104 66 145 8.0 17.0 0.00 0.00 0.00 44 1011.8
20260508172827 66 105 5.0 14.0 0.00 0.00 0.00 46 1011.8
20260508172041 67 163 5.0 14.0 0.00 0.00 0.00 44 1011.8
20260508171555 66 159 3.0 9.0 0.00 0.00 0.00 46 1012.1
20260508171515 67 215 5.0 15.0 0.00 0.00 0.00 45 1011.9
20260508171011 67 118 7.0 15.0 0.00 0.00 0.00 45 1011.9
20260508170519 67 193 7.0 18.0 0.00 0.00 0.00 42 1011.9
20260508170021 67 172 5.0 18.0 0.00 0.00 0.00 45 1012.2
20260508165943 67 165 7.0 18.0 0.00 0.00 0.00 45 1012.2
20260508165417 67 88 8.0 20.0 0.00 0.00 0.00 44 1012.2
20260508164850 67 164 8.0 20.0 0.00 0.00 0.00 44 1012.4
20260508164504 67 207 6.0 19.0 0.00 0.00 0.00 45 1012.6
20260508164324 67 149 7.0 19.0 0.00 0.00 0.00 43 1012.6
20260508163758 67 74 7.0 19.0 0.00 0.00 0.00 45 1012.6
20260508163228 66 146 7.0 19.0 0.00 0.00 0.00 46 1012.6
20260508163027 66 103 7.0 16.0 0.00 0.00 0.00 46 1012.9
20260508162952 66 150 8.0 19.0 0.00 0.00 0.00 44 1012.7
20260508162158 66 127 8.0 19.0 0.00 0.00 0.00 45 1012.8
20260508161658 66 158 7.0 14.0 0.00 0.00 0.00 46 1012.7
20260508161542 65 172 6.0 12.0 0.00 0.00 0.00 47 1013.0
20260508161154 66 122 6.0 15.0 0.00 0.00 0.00 47 1012.8
20260508160650 66 99 5.0 15.0 0.00 0.00 0.00 48 1012.8
20260508160147 65 207 6.0 15.0 0.00 0.00 0.00 50 1012.8
20260508160129 65 149 5.0 14.0 0.00 0.00 0.00 48 1013.1
20260508155644 65 61 6.0 15.0 0.00 0.00 0.00 48 1013.1
20260508155142 65 134 7.0 20.0 0.00 0.00 0.00 46 1013.1
20260508154637 65 210 7.0 20.0 0.00 0.00 0.00 47 1013.2
20260508154522 64 167 8.0 19.0 0.00 0.00 0.00 47 1013.3
20260508154111 65 228 6.0 15.0 0.00 0.00 0.00 49 1013.2
20260508153546 64 130 7.0 15.0 0.00 0.00 0.00 48 1013.3
20260508153043 64 186 6.0 15.0 0.00 0.00 0.00 50 1013.5
20260508153017 64 226 6.0 15.0 0.00 0.00 0.00 50 1013.4
20260508152517 64 125 6.0 15.0 0.00 0.00 0.00 51 1013.4
20260508152429 63 162 6.0 17.0 0.00 0.00 0.00 49 1013.4
20260508151503 63 153 4.0 17.0 0.00 0.00 0.00 51 1013.7
20260508151445 63 147 6.0 17.0 0.00 0.00 0.00 51 1013.5
20260508150944 63 124 6.0 15.0 0.00 0.00 0.00 53 1013.5
20260508150438 62 159 6.0 15.0 0.00 0.00 0.00 50 1013.6
20260508150021 62 210 5.0 17.0 0.00 0.00 0.00 51 1013.9
20260508145937 62 165 7.0 17.0 0.00 0.00 0.00 50 1013.5
20260508145433 62 199 7.0 17.0 0.00 0.00 0.00 50 1013.5
20260508144932 61 134 8.0 16.0 0.00 0.00 0.00 50 1013.6
20260508144510 61 199 8.0 12.0 0.00 0.00 0.00 50 1013.9
20260508144428 61 143 6.0 14.0 0.00 0.00 0.00 51 1013.6
20260508143925 61 161 6.0 14.0 0.00 0.00 0.00 50 1013.6
20260508143423 61 184 6.0 14.0 0.00 0.00 0.00 50 1013.8
20260508143059 60 205 5.0 14.0 0.00 0.00 0.00 50 1014.0
20260508142920 60 123 7.0 16.0 0.00 0.00 0.00 49 1013.8
20260508142419 60 34 7.0 16.0 0.00 0.00 0.00 49 1013.8
20260508141917 60 151 7.0 16.0 0.00 0.00 0.00 49 1013.8
20260508141526 60 229 7.0 16.0 0.00 0.00 0.00 50 1014.2
20260508141350 60 205 6.0 16.0 0.00 0.00 0.00 52 1014.0
20260508140844 60 133 5.0 14.0 0.00 0.00 0.00 49 1013.9
20260508140344 60 105 4.0 11.0 0.00 0.00 0.00 49 1014.1
20260508140100 59 217 3.0 10.0 0.00 0.00 0.00 52 1014.4
20260508135839 60 155 4.0 11.0 0.00 0.00 0.00 51 1014.0
20260508135605 59 120 4.0 11.0 0.00 0.00 0.00 54 1014.0
20260508134812 59 222 4.0 9.0 0.00 0.00 0.00 52 1014.1
20260508134532 58 97 3.0 9.0 0.00 0.00 0.00 54 1014.4
20260508134246 58 126 4.0 12.0 0.00 0.00 0.00 54 1014.1
20260508133721 58 142 5.0 12.0 0.00 0.00 0.00 56 1014.1
20260508133216 58 148 4.0 13.0 0.00 0.00 0.00 54 1014.1
20260508133017 57 288 5.0 13.0 0.00 0.00 0.00 53 1014.5
20260508132714 57 286 4.0 13.0 0.00 0.00 0.00 55 1014.1
20260508132209 56 288 4.0 13.0 0.00 0.00 0.00 55 1014.1
20260508131709 56 285 3.0 10.0 0.00 0.00 0.00 58 1014.1
20260508131527 55 284 3.0 8.0 0.00 0.00 0.00 58 1014.5
20260508131139 55 284 2.0 7.0 0.00 0.00 0.00 61 1014.1
20260508130638 55 285 2.0 5.0 0.00 0.00 0.00 62 1014.1
20260508130136 54 285 2.0 4.0 0.00 0.00 0.00 62 1014.1
20260508130104 54 285 2.0 4.0 0.00 0.00 0.00 62 1014.4
20260508125609 54 289 3.0 8.0 0.00 0.00 0.00 62 1014.1
20260508125105 54 285 3.0 8.0 0.00 0.00 0.00 61 1014.0
20260508124603 53 99 3.0 10.0 0.00 0.00 0.00 62 1014.1
20260508124532 53 121 2.0 6.0 0.00 0.00 0.00 63 1014.4
20260508124038 53 147 3.0 10.0 0.00 0.00 0.00 63 1014.0
20260508123734 53 120 2.0 5.0 0.00 0.00 0.00 64 1014.0
20260508123025 52 120 2.0 5.0 0.00 0.00 0.00 63 1014.3
20260508122945 52 119 3.0 9.0 0.00 0.00 0.00 63 1013.9
20260508122418 52 285 3.0 9.0 0.00 0.00 0.00 64 1013.9
20260508121915 52 292 3.0 8.0 0.00 0.00 0.00 64 1014.0
20260508121610 51 286 3.0 8.0 0.00 0.00 0.00 64 1014.3
20260508121413 51 285 3.0 7.0 0.00 0.00 0.00 64 1013.9
20260508120848 51 285 3.0 7.0 0.00 0.00 0.00 65 1014.0
20260508120338 51 273 3.0 7.0 0.00 0.00 0.00 66 1014.0
20260508120056 51 286 2.0 7.0 0.00 0.00 0.00 65 1013.9
20260508120029 50 284 3.0 6.0 0.00 0.00 0.00 65 1014.3
20260508115535 50 286 2.0 5.0 0.00 0.00 0.00 65 1013.8
20260508114743 50 285 2.0 3.0 0.00 0.00 0.00 66 1013.9
20260508114540 50 285 1.0 3.0 0.00 0.00 0.00 66 1014.2
20260508114241 50 285 2.0 5.0 0.00 0.00 0.00 66 1013.8
20260508113715 50 285 2.0 5.0 0.00 0.00 0.00 66 1013.8
20260508113414 50 285 2.0 5.0 0.00 0.00 0.00 65 1013.7
20260508113009 50 285 1.0 3.0 0.00 0.00 0.00 65 1014.0
20260508112620 50 285 2.0 6.0 0.00 0.00 0.00 65 1013.7
20260508112120 50 285 2.0 6.0 0.00 0.00 0.00 65 1013.6
20260508111600 50 285 2.0 7.0 0.00 0.00 0.00 65 1013.6
20260508111534 50 285 2.0 6.0 0.00 0.00 0.00 65 1013.9
20260508111306 50 285 2.0 7.0 0.00 0.00 0.00 65 1013.5
20260508110546 50 285 2.0 5.0 0.00 0.00 0.00 65 1013.5
20260508110527 50 285 1.0 4.0 0.00 0.00 0.00 65 1013.4
20260508110104 49 285 0.0 4.0 0.00 0.00 0.00 66 1013.7
20260508105544 49 285 1.0 4.0 0.00 0.00 0.00 66 1013.4
20260508105021 49 285 1.0 4.0 0.00 0.00 0.00 66 1013.4
20260508104533 49 285 0.0 3.0 0.00 0.00 0.00 66 1013.7
20260508104456 49 285 1.0 4.0 0.00 0.00 0.00 66 1013.4
20260508103932 49 285 2.0 7.0 0.00 0.00 0.00 66 1013.5
20260508103431 49 285 2.0 7.0 0.00 0.00 0.00 66 1013.5
20260508103125 49 285 1.0 4.0 0.00 0.00 0.00 66 1013.5
20260508103058 49 285 2.0 4.0 0.00 0.00 0.00 66 1013.8
20260508102340 49 285 1.0 4.0 0.00 0.00 0.00 67 1013.5
20260508101818 49 285 1.0 4.0 0.00 0.00 0.00 67 1013.4
20260508101507 48 285 0.0 4.0 0.00 0.00 0.00 67 1013.8
20260508101317 49 285 2.0 4.0 0.00 0.00 0.00 67 1013.4
20260508100812 49 285 1.0 4.0 0.00 0.00 0.00 67 1013.4
20260508100313 49 285 1.0 3.0 0.00 0.00 0.00 67 1013.3
20260508100027 48 285 1.0 4.0 0.00 0.00 0.00 67 1013.7
20260508095756 49 285 1.0 4.0 0.00 0.00 0.00 66 1013.4
20260508095517 49 285 1.0 3.0 0.00 0.00 0.00 66 1013.4
20260508095217 49 285 1.0 3.0 0.00 0.00 0.00 66 1013.4
20260508094530 48 285 1.0 3.0 0.00 0.00 0.00 66 1013.7
20260508094237 49 285 1.0 3.0 0.00 0.00 0.00 66 1013.5
20260508093717 49 285 1.0 3.0 0.00 0.00 0.00 66 1013.5
20260508093219 48 285 1.0 3.0 0.00 0.00 0.00 67 1013.4
20260508093041 48 285 1.0 3.0 0.00 0.00 0.00 67 1013.8
20260508092649 48 285 1.0 3.0 0.00 0.00 0.00 67 1013.5
20260508092121 48 285 1.0 3.0 0.00 0.00 0.00 67 1013.5
20260508091618 48 285 1.0 3.0 0.00 0.00 0.00 67 1013.4
20260508091503 48 285 0.0 3.0 0.00 0.00 0.00 67 1013.8
20260508091322 48 285 1.0 3.0 0.00 0.00 0.00 67 1013.4
20260508090600 48 285 0.0 2.0 0.00 0.00 0.00 67 1013.6
20260508090100 48 285 0.0 2.0 0.00 0.00 0.00 66 1013.6
20260508090029 48 285 0.0 1.0 0.00 0.00 0.00 66 1014.0
20260508085811 48 285 0.0 2.0 0.00 0.00 0.00 66 1013.5
20260508085043 48 285 1.0 4.0 0.00 0.00 0.00 66 1013.5
20260508084603 48 285 0.0 4.0 0.00 0.00 0.00 66 1013.7
20260508084527 48 285 1.0 4.0 0.00 0.00 0.00 66 1013.3
20260508084008 48 285 0.0 2.0 0.00 0.00 0.00 66 1013.4
20260508083446 48 285 1.0 3.0 0.00 0.00 0.00 66 1013.4
20260508083201 48 285 1.0 3.0 0.00 0.00 0.00 66 1013.3
20260508083030 47 285 1.0 3.0 0.00 0.00 0.00 66 1013.7
20260508082440 48 286 1.0 4.0 0.00 0.00 0.00 67 1013.3
20260508081939 48 285 1.0 4.0 0.00 0.00 0.00 67 1013.3
20260508081509 48 285 0.0 3.0 0.00 0.00 0.00 66 1013.7
20260508081437 48 285 1.0 3.0 0.00 0.00 0.00 67 1013.3
20260508081407 48 285 1.0 3.0 0.00 0.00 0.00 66 1013.4
20260508080619 48 285 2.0 5.0 0.00 0.00 0.00 65 1013.2
20260508075826 48 286 2.0 4.0 0.00 0.00 0.00 65 1013.3
20260508075747 48 286 1.0 4.0 0.00 0.00 0.00 65 1013.3
20260508074757 48 286 1.0 4.0 0.00 0.00 0.00 65 1013.3
20260508074525 48 286 0.0 4.0 0.00 0.00 0.00 65 1013.7
20260508074237 48 286 1.0 4.0 0.00 0.00 0.00 65 1013.4
20260508073711 49 286 1.0 3.0 0.00 0.00 0.00 65 1013.3
20260508073148 48 286 1.0 4.0 0.00 0.00 0.00 64 1013.2
20260508073011 48 286 1.0 4.0 0.00 0.00 0.00 65 1013.6
20260508072618 48 286 1.0 4.0 0.00 0.00 0.00 65 1013.2
20260508072118 48 286 1.0 3.0 0.00 0.00 0.00 65 1013.3
20260508071552 48 286 1.0 3.0 0.00 0.00 0.00 65 1013.3
20260508071533 48 286 1.0 3.0 0.00 0.00 0.00 65 1013.7
20260508071050 49 286 1.0 3.0 0.00 0.00 0.00 64 1013.4
20260508070820 49 286 1.0 3.0 0.00 0.00 0.00 63 1013.4
20260508070027 49 286 2.0 4.0 0.00 0.00 0.00 62 1013.5
20260508070003 49 286 0.0 4.0 0.00 0.00 0.00 62 1013.9
20260508065459 49 286 2.0 5.0 0.00 0.00 0.00 61 1013.5
20260508064955 49 286 2.0 4.0 0.00 0.00 0.00 61 1013.4
20260508064544 49 286 1.0 8.0 0.00 0.00 0.00 61 1013.9
20260508064454 49 285 2.0 8.0 0.00 0.00 0.00 61 1013.5
20260508063926 49 286 2.0 5.0 0.00 0.00 0.00 62 1013.7
20260508063904 49 286 2.0 5.0 0.00 0.00 0.00 63 1013.8
20260508063109 48 286 1.0 4.0 0.00 0.00 0.00 64 1014.3
20260508062921 49 286 1.0 5.0 0.00 0.00 0.00 64 1013.9
20260508062418 49 286 2.0 7.0 0.00 0.00 0.00 64 1013.9
20260508061903 49 286 2.0 7.0 0.00 0.00 0.00 64 1013.9
20260508061622 49 286 2.0 7.0 0.00 0.00 0.00 65 1014.0
20260508061532 49 286 1.0 5.0 0.00 0.00 0.00 66 1014.4
20260508061127 49 286 2.0 7.0 0.00 0.00 0.00 65 1013.9
20260508060558 49 285 2.0 4.0 0.00 0.00 0.00 64 1014.0
20260508060046 49 285 1.0 4.0 0.00 0.00 0.00 64 1014.4
20260508055812 49 286 1.0 4.0 0.00 0.00 0.00 64 1013.9
20260508055245 49 286 1.0 3.0 0.00 0.00 0.00 64 1013.9
20260508054715 49 285 0.0 3.0 0.00 0.00 0.00 65 1013.9
20260508054514 49 285 0.0 3.0 0.00 0.00 0.00 65 1014.4
20260508054436 49 285 0.0 2.0 0.00 0.00 0.00 65 1014.1
20260508053707 49 285 1.0 2.0 0.00 0.00 0.00 65 1014.1
20260508053204 50 285 1.0 3.0 0.00 0.00 0.00 65 1014.1
20260508053027 49 285 1.0 3.0 0.00 0.00 0.00 64 1014.4
20260508052656 50 285 1.0 3.0 0.00 0.00 0.00 64 1014.1
20260508052153 50 285 1.0 5.0 0.00 0.00 0.00 64 1014.0
20260508051651 50 285 2.0 5.0 0.00 0.00 0.00 64 1014.0
20260508051558 49 285 1.0 5.0 0.00 0.00 0.00 64 1014.4
20260508051148 50 285 2.0 4.0 0.00 0.00 0.00 64 1013.9
20260508050848 50 285 2.0 4.0 0.00 0.00 0.00 63 1013.9
20260508050055 50 285 2.0 6.0 0.00 0.00 0.00 63 1013.8
20260508050004 50 285 0.0 6.0 0.00 0.00 0.00 63 1014.2
20260508045814 50 285 2.0 6.0 0.00 0.00 0.00 63 1013.8
20260508045028 50 285 2.0 5.0 0.00 0.00 0.00 63 1013.9
20260508044516 50 285 2.0 5.0 0.00 0.00 0.00 63 1014.3
20260508044458 50 285 2.0 5.0 0.00 0.00 0.00 63 1013.9
20260508043958 50 286 2.0 4.0 0.00 0.00 0.00 63 1013.9
20260508043432 50 285 1.0 3.0 0.00 0.00 0.00 63 1013.8
20260508043122 50 286 1.0 5.0 0.00 0.00 0.00 62 1013.8
20260508043033 50 285 1.0 3.0 0.00 0.00 0.00 62 1014.2
20260508042401 51 286 2.0 5.0 0.00 0.00 0.00 62 1013.8
20260508041831 51 286 1.0 4.0 0.00 0.00 0.00 61 1013.8
20260508041520 50 285 1.0 3.0 0.00 0.00 0.00 61 1014.2
20260508041328 51 285 1.0 3.0 0.00 0.00 0.00 61 1013.8
20260508040805 51 285 1.0 3.0 0.00 0.00 0.00 61 1013.8
20260508040247 51 285 1.0 3.0 0.00 0.00 0.00 61 1013.8
20260508040018 50 285 1.0 3.0 0.00 0.00 0.00 60 1014.2
20260508035748 51 285 2.0 5.0 0.00 0.00 0.00 61 1013.7
20260508035246 51 285 2.0 5.0 0.00 0.00 0.00 61 1013.6
20260508034939 51 285 1.0 4.0 0.00 0.00 0.00 61 1013.7
20260508034516 51 285 1.0 3.0 0.00 0.00 0.00 61 1014.1
20260508034216 51 285 1.0 4.0 0.00 0.00 0.00 61 1013.7
20260508033649 51 286 1.0 4.0 0.00 0.00 0.00 61 1013.7
20260508033146 51 286 1.0 4.0 0.00 0.00 0.00 60 1013.8
20260508033005 51 286 0.0 4.0 0.00 0.00 0.00 60 1014.2
20260508032622 51 286 1.0 3.0 0.00 0.00 0.00 60 1013.8
20260508032052 52 286 1.0 3.0 0.00 0.00 0.00 59 1013.8
20260508031550 52 286 1.0 5.0 0.00 0.00 0.00 58 1013.8
20260508031520 51 286 0.0 5.0 0.00 0.00 0.00 58 1014.2
20260508031023 52 286 2.0 5.0 0.00 0.00 0.00 57 1013.6
20260508030520 52 285 2.0 5.0 0.00 0.00 0.00 56 1013.6
20260508030010 52 285 1.0 4.0 0.00 0.00 0.00 56 1014.0
20260508025951 52 285 2.0 4.0 0.00 0.00 0.00 56 1013.6
20260508025450 53 285 2.0 4.0 0.00 0.00 0.00 55 1013.6
20260508025147 53 286 1.0 3.0 0.00 0.00 0.00 55 1013.7
20260508024527 52 285 1.0 3.0 0.00 0.00 0.00 55 1014.2
20260508024356 53 285 1.0 3.0 0.00 0.00 0.00 54 1013.7
20260508023854 53 286 1.0 3.0 0.00 0.00 0.00 54 1013.8
20260508023326 53 286 1.0 3.0 0.00 0.00 0.00 54 1013.8
20260508023101 53 286 0.0 3.0 0.00 0.00 0.00 53 1014.1
20260508022824 53 286 1.0 3.0 0.00 0.00 0.00 53 1013.7
20260508022321 53 286 1.0 3.0 0.00 0.00 0.00 52 1013.6